Theta_e
318 311 309 306 296 292 287 289 291 293 293 298 301 299 298 301 299 292 313 323 339 344 348 348 351 353 353 352 352 353 351 350 350 347 345 343 342 341 340 339 337 336 335 335 338 340 341 341 342
316 312 308 298 290 285 287 290 293 295 298 301 300 299 302 302 310 314 316 336 344 346 348 348 348 351 351 351 352 352 351 350 349 347 344 343 341 340 338 338 336 334 333 334 336 338 339 340 340
312 308 301 293 287 286 288 291 292 296 299 295 298 302 303 305 310 312 320 340 344 344 347 346 347 351 351 352 352 351 351 350 349 347 344 343 341 338 337 336 334 331 331 331 333 335 338 338 337
306 304 297 290 287 289 291 294 294 295 295 299 300 301 308 312 313 316 325 341 341 343 346 343 347 351 351 351 351 350 350 350 348 346 343 342 340 337 336 334 332 329 328 329 330 332 335 332 336
301 297 291 288 289 292 291 294 295 295 295 295 296 298 304 310 315 323 332 341 338 340 344 343 345 347 348 350 350 350 349 349 348 347 342 341 339 337 335 333 332 328 325 325 326 328 329 328 332
297 294 288 286 287 290 293 295 294 294 294 296 298 300 304 305 314 321 328 332 335 338 343 344 339 342 345 347 347 347 348 348 347 346 343 341 339 337 336 334 333 327 323 322 322 325 326 325 326
294 290 287 287 288 290 293 296 293 294 294 294 300 296 299 303 313 318 319 322 326 332 337 341 342 339 337 340 342 344 345 345 345 344 343 341 339 338 336 335 333 328 323 320 320 321 321 321 321
293 291 285 287 288 290 294 295 294 295 293 297 297 294 297 303 316 313 311 311 312 314 318 331 340 337 338 338 334 337 339 340 341 340 337 335 334 335 334 331 333 329 326 323 322 320 319 319 318
293 287 285 287 289 292 294 293 295 295 296 294 296 296 298 305 311 308 307 307 308 308 309 312 328 337 337 338 336 332 334 335 335 335 331 330 334 333 330 328 331 331 329 326 323 320 317 315 315
292 287 289 290 290 291 294 293 296 294 294 293 294 297 299 304 307 308 308 307 305 304 307 308 309 315 327 334 338 337 335 335 336 337 333 334 332 331 330 325 327 328 328 327 323 320 315 309 304
290 288 291 291 294 295 294 293 295 293 291 294 295 297 298 299 305 306 304 303 303 303 307 309 310 310 312 326 334 335 333 334 334 333 332 332 330 329 328 325 323 321 317 315 313 311 309 308 306
292 293 293 295 296 295 294 295 293 293 295 296 297 298 297 298 302 302 300 299 301 304 306 307 309 310 311 313 329 334 332 331 333 333 332 330 328 327 325 323 322 319 317 314 312 310 310 309 308
291 292 295 296 296 294 296 295 294 295 294 295 296 297 297 297 298 298 299 299 301 303 304 306 307 309 311 309 330 330 329 329 328 333 332 330 328 326 325 322 320 319 317 315 312 309 308 307 307
293 294 295 296 295 296 294 292 294 295 295 295 296 296 295 296 296 295 297 298 301 303 303 305 309 312 311 311 325 323 324 324 324 324 331 329 328 326 323 320 318 316 315 313 311 307 305 303 304
294 291 293 294 294 295 295 292 292 294 294 294 294 294 294 295 295 296 297 298 301 302 303 306 308 313 312 320 320 319 319 319 318 318 321 326 327 323 320 317 314 313 313 311 308 304 304 302 302
290 289 287 291 294 294 294 289 294 294 293 293 293 292 293 294 295 295 296 298 301 300 303 305 311 314 314 316 316 315 314 314 314 314 315 318 319 318 316 313 311 310 308 306 303 300 298 297 298
287 284 285 290 294 292 291 290 292 292 292 292 291 291 292 292 293 293 294 297 299 300 302 303 308 312 311 311 310 308 308 308 310 311 311 311 313 312 311 308 306 306 303 300 297 293 294 296 296
284 284 285 286 290 290 288 289 293 292 291 292 291 291 291 292 294 293 294 297 298 299 301 302 307 308 308 304 303 302 302 301 303 304 305 306 305 304 303 302 302 301 296 292 290 291 290 292 294
288 285 285 288 292 289 289 289 293 293 291 290 290 291 292 293 295 292 294 296 296 298 299 302 304 302 304 303 302 302 298 298 298 298 299 299 299 297 297 296 296 295 291 289 288 288 292 286 288
288 286 286 289 291 290 290 289 291 292 292 292 294 294 294 293 290 291 293 294 296 298 300 300 304 304 304 305 299 297 296 293 294 295 294 294 294 293 293 291 289 288 287 286 286 286 284 283 283
288 286 285 287 288 288 286 285 288 292 293 294 293 296 297 295 292 290 292 294 296 297 299 300 304 304 304 297 295 292 292 292 292 291 290 290 290 288 288 287 286 285 285 283 283 283 282 281 281
286 290 289 288 286 282 286 281 287 289 291 291 295 296 295 293 292 292 293 293 296 298 299 300 304 303 297 296 295 294 295 293 290 290 288 288 286 286 286 285 284 283 283 282 282 282 281 281 280
288 291 289 287 284 282 282 281 286 288 288 292 295 296 294 293 292 291 293 295 296 298 299 301 304 297 296 296 296 296 294 289 288 287 286 286 284 284 284 284 283 282 282 281 281 280 281 281 280
292 289 287 285 283 279 284 284 284 286 289 291 295 296 294 291 290 290 292 294 295 297 300 304 299 297 295 295 295 293 289 288 287 286 285 284 282 282 282 282 282 281 281 281 281 281 281 281 280
290 288 280 278 277 279 282 281 288 290 292 292 294 295 291 288 288 288 290 292 293 296 300 300 297 294 294 294 292 291 289 289 287 286 284 282 281 281 280 281 281 281 281 281 281 281 280 280 279
287 287 281 274 275 278 282 280 286 290 293 292 292 291 289 288 288 288 291 293 293 296 298 298 294 292 293 292 291 290 289 289 287 286 284 283 282 281 281 281 281 281 281 281 281 280 279 279 278
286 284 289 283 271 274 282 284 289 290 290 292 292 288 287 287 287 288 290 292 293 295 296 296 293 291 291 291 290 289 288 287 286 284 283 282 282 282 281 281 280 280 280 280 280 279 278 278 278
288 290 283 282 274 272 279 280 285 288 290 291 291 292 288 287 286 287 289 290 292 293 292 291 292 290 290 290 289 288 287 286 285 283 281 281 281 281 280 280 280 279 279 279 279 278 278 277 277
285 284 284 286 281 275 273 283 288 289 291 291 291 290 288 287 286 286 287 288 289 288 287 288 289 289 289 288 288 287 285 284 283 282 281 280 280 280 280 280 279 279 279 279 278 278 277 277 276
287 287 287 282 279 281 279 285 290 289 289 289 291 290 287 287 286 285 286 286 285 285 285 286 287 288 288 288 287 286 284 283 281 281 280 280 280 280 280 280 280 279 279 278 278 277 277 276 276
Wind_Speed
5 4 3 6 6 7 1 3 1 2 2 5 3 5 7 3 3 4 4 3 6 8 7 7 10 11 12 12 11 10 12 14 16 16 14 14 14 15 14 14 14 12 14 13 14 14 14 15 14
3 1 5 3 7 4 4 4 5 4 6 7 6 3 6 2 0 2 0 3 9 9 7 6 10 11 12 12 11 10 11 13 15 15 14 15 13 14 14 15 13 13 14 14 14 14 14 14 15
2 4 5 6 4 4 5 4 4 3 8 2 4 4 2 1 0 2 3 8 7 7 7 7 10 11 11 11 10 10 11 12 13 14 13 14 14 14 14 15 14 14 14 14 15 14 14 15 16
3 5 5 6 2 3 5 6 5 6 2 4 4 6 2 1 2 1 5 7 8 9 8 9 11 12 12 11 10 10 12 13 13 13 13 13 14 14 13 13 13 13 14 14 14 14 15 17 17
5 4 5 4 2 2 3 4 8 6 5 3 2 5 1 3 4 5 6 7 7 7 9 9 11 12 13 12 10 10 11 12 12 13 12 13 13 13 13 13 13 13 13 14 14 15 15 17 18
5 4 5 2 3 2 2 4 4 4 3 4 5 6 5 4 2 3 4 4 1 6 7 8 10 9 10 10 10 10 10 11 12 13 14 14 13 12 12 12 12 13 13 14 14 15 16 16 18
7 5 5 4 5 1 4 6 5 6 5 3 10 6 3 3 1 4 5 6 6 5 5 4 6 8 9 10 9 9 10 10 12 14 14 13 12 12 11 11 12 12 13 14 14 14 15 16 16
6 6 4 3 6 5 4 4 3 5 3 3 2 6 5 6 7 6 6 6 7 6 5 3 5 5 6 5 8 9 10 10 11 12 12 12 11 11 10 9 10 12 12 12 13 14 16 17 17
3 6 3 6 6 5 3 3 1 2 7 2 2 4 4 10 8 5 4 3 4 4 5 4 4 4 4 5 6 8 9 12 13 12 13 11 6 6 6 6 10 11 10 11 13 14 14 15 16
6 4 8 5 4 4 3 3 6 4 4 2 1 1 3 7 6 8 6 6 4 4 2 4 4 3 2 0 2 5 6 5 7 9 9 4 5 6 6 7 9 11 11 13 14 14 14 10 5
3 5 5 3 3 3 3 2 4 6 4 8 10 10 7 6 7 8 6 6 7 3 2 2 1 1 1 2 1 2 3 4 4 6 7 7 5 5 4 3 3 3 7 4 6 6 5 6 5
2 1 3 3 3 3 3 1 3 7 7 3 8 9 7 9 10 9 8 7 6 5 5 2 1 2 3 2 2 2 3 4 5 6 9 7 5 5 4 3 3 3 3 5 5 4 5 6 7
1 1 1 2 4 3 2 5 7 8 3 2 6 9 10 8 8 5 6 5 5 5 4 3 2 3 3 3 2 1 3 3 4 7 9 8 6 6 5 4 4 3 3 4 5 4 5 5 6
2 1 4 4 3 3 5 4 4 7 6 5 8 10 9 10 10 5 7 8 7 5 5 3 3 3 3 3 2 2 3 4 4 3 5 9 7 7 6 5 4 4 4 4 5 4 5 4 5
1 3 6 5 3 5 5 7 12 5 6 9 10 8 8 10 9 12 9 8 7 5 5 5 4 3 5 4 4 3 3 4 4 4 4 6 8 8 7 5 5 4 4 7 5 5 6 5 6
2 4 2 3 6 2 6 12 6 7 10 12 11 9 9 11 11 8 8 7 8 6 7 5 3 4 4 5 4 4 4 4 4 5 5 5 8 9 7 6 5 4 5 4 5 4 6 5 6
5 4 5 9 8 3 5 8 3 3 7 10 10 11 10 8 10 9 9 9 8 7 7 5 4 5 5 5 5 6 6 5 4 5 5 7 7 8 7 6 5 6 5 3 5 4 4 6 7
6 5 5 6 3 3 4 13 9 4 8 12 9 9 10 12 20 11 10 8 7 7 6 6 5 6 7 5 6 5 5 5 4 4 6 7 7 8 8 6 6 7 5 5 4 6 6 4 6
4 4 6 4 3 3 9 9 15 8 7 10 11 12 15 18 11 9 9 8 7 7 7 8 9 7 8 6 5 4 4 3 4 4 7 7 7 8 8 6 7 5 6 5 5 4 9 5 3
1 3 8 6 5 6 10 13 13 9 10 11 17 18 18 14 9 10 11 9 9 10 10 10 10 11 8 6 3 4 4 4 4 4 7 7 7 8 8 8 6 6 6 6 5 4 4 4 4
7 8 5 8 4 4 5 8 10 10 9 10 12 18 16 20 16 13 14 15 11 13 12 11 11 12 9 8 8 7 7 5 3 4 5 4 7 7 8 8 7 6 4 5 4 5 6 5 4
9 8 5 5 2 6 1 11 7 6 11 9 17 17 20 11 10 14 17 16 16 13 11 11 12 12 11 12 9 14 8 8 3 4 5 5 6 7 6 7 7 7 5 7 5 4 4 5 5
7 4 6 2 3 4 3 7 7 5 9 14 17 18 13 12 15 18 21 20 14 12 13 12 13 11 12 11 11 9 9 6 7 7 10 8 5 6 7 7 7 8 6 6 7 6 6 4 5
7 5 6 4 2 8 12 10 5 7 9 6 11 14 10 8 8 8 9 10 12 10 11 13 14 12 13 12 12 10 13 13 11 9 8 6 4 4 5 7 7 6 7 7 6 7 9 8 7
4 6 2 5 2 10 4 5 12 8 8 10 11 13 1 4 8 9 12 14 13 15 14 12 14 13 13 12 12 11 13 15 16 16 12 12 7 5 6 7 7 6 7 7 7 8 8 6 7
9 10 8 8 5 6 2 10 8 11 11 7 10 5 4 6 8 10 12 13 13 15 16 15 14 13 14 13 12 11 12 8 9 11 12 9 9 8 7 7 7 8 8 7 7 7 7 8 7
6 8 4 3 2 3 6 9 8 10 11 12 13 3 5 7 7 8 8 10 13 15 16 17 15 13 13 13 12 12 12 11 11 10 9 7 7 7 8 8 9 8 8 8 8 7 8 7 6
6 7 3 2 3 6 6 8 12 6 8 8 10 9 6 7 6 6 7 9 11 12 10 8 10 13 14 13 12 12 12 11 10 9 10 10 9 10 10 9 9 8 6 7 8 7 7 9 5
4 4 2 4 6 6 4 10 8 7 7 7 7 5 5 7 6 8 7 6 7 6 7 8 9 11 12 13 12 13 12 11 11 10 10 10 10 11 11 11 10 10 9 7 8 7 8 9 7
1 8 7 6 6 5 3 18 5 4 1 4 7 6 1 4 7 7 7 8 7 7 8 12 12 13 12 12 12 12 12 12 12 11 10 10 12 9 10 10 9 8 8 7 9 9 7 9 8
Wind_Direction
328 352 68 40 58 65 339 246 282 141 60 332 70 134 145 66 140 208 269 215 155 142 141 144 134 129 129 125 127 128 124 116 113 107 104 95 86 82 75 73 73 73 73 71 72 66 62 64 58
340 59 46 78 85 74 273 257 182 188 154 161 77 57 47 87 154 155 69 152 149 142 141 143 141 137 135 132 132 124 125 125 121 114 107 95 89 78 79 77 74 70 69 70 71 67 64 67 57
125 43 83 90 108 156 183 223 200 138 151 134 99 61 123 97 322 201 234 145 135 142 147 153 152 145 141 137 131 123 127 127 124 116 107 101 90 85 80 77 72 67 67 66 67 69 68 66 61
78 13 36 79 134 216 199 188 187 134 277 65 121 68 351 285 312 199 158 156 155 160 156 159 161 157 150 144 138 133 132 133 131 119 108 103 95 90 88 84 78 73 72 72 72 72 70 65 68
36 57 57 73 296 261 242 183 164 164 151 126 125 180 122 350 326 19 143 166 167 169 158 168 170 166 162 152 145 140 137 137 136 128 121 113 107 102 91 85 80 79 78 78 77 78 76 71 71
47 89 64 163 253 295 293 174 168 137 132 150 86 127 196 336 348 3 113 125 118 173 170 172 173 167 163 152 145 141 139 142 142 137 130 127 120 110 101 93 84 81 80 77 76 77 77 74 74
110 84 172 156 188 206 217 157 175 158 144 209 152 129 265 285 207 102 96 86 77 74 80 115 167 164 160 158 149 150 150 147 148 145 137 130 124 118 110 102 94 89 85 82 79 77 77 75 73
102 91 116 192 188 227 194 152 127 141 176 113 145 180 205 212 159 109 82 78 73 63 63 59 121 135 148 160 163 163 157 149 144 142 136 133 136 135 129 110 98 94 90 85 78 75 72 71 68
122 66 158 190 156 243 179 140 149 91 116 67 294 161 265 138 136 113 106 77 74 62 52 50 77 102 161 176 178 174 169 157 150 151 149 146 143 131 120 114 105 94 83 84 76 72 73 78 74
80 103 207 191 193 224 187 163 179 150 134 218 300 315 96 130 161 160 167 162 152 147 83 54 57 74 89 130 229 190 168 165 164 157 152 128 118 129 124 106 96 93 76 81 78 72 63 56 52
159 168 202 224 197 199 195 230 193 138 234 205 195 187 176 167 180 182 192 181 182 157 137 82 68 18 267 215 230 199 173 146 146 148 149 133 125 132 120 115 108 93 90 78 77 68 57 59 59
111 241 177 180 230 159 195 147 213 193 221 307 204 169 162 178 192 192 194 190 178 180 181 169 313 289 266 261 228 224 159 154 153 163 152 141 140 140 133 127 116 95 97 99 82 73 70 64 65
144 260 259 214 192 246 115 232 224 239 214 37 151 159 184 187 196 200 197 196 183 196 206 235 282 262 261 254 230 158 145 144 141 160 161 148 152 144 131 122 115 110 105 95 88 75 75 66 64
179 251 284 283 221 229 192 255 141 259 152 156 166 191 193 191 188 177 194 202 198 200 211 227 253 267 216 226 132 101 92 98 88 82 152 151 148 141 129 122 111 97 96 84 92 93 86 67 79
73 333 333 250 223 230 164 279 232 203 162 189 205 209 212 217 194 203 196 196 186 201 202 210 213 237 187 136 111 93 78 91 86 75 63 130 141 134 131 124 113 101 98 102 96 81 83 76 71
51 55 337 288 142 257 137 268 272 181 164 216 216 219 221 223 217 215 196 193 190 182 195 192 193 198 128 113 105 94 78 76 80 77 77 91 113 121 123 117 108 105 86 97 94 80 78 75 81
3 242 212 310 201 133 170 266 270 149 199 235 226 222 225 235 235 219 202 194 185 187 180 179 179 150 124 108 97 88 81 73 83 78 83 89 93 98 102 110 102 104 91 89 96 72 91 100 87
207 220 241 236 213 163 218 265 270 233 203 234 240 241 236 232 231 207 197 188 178 181 173 167 161 149 122 106 99 84 82 70 64 83 82 87 93 95 102 96 101 88 102 72 73 93 59 75 95
150 204 245 237 261 162 233 247 258 246 231 240 237 237 233 231 230 185 184 178 178 180 170 177 160 163 140 136 133 122 112 105 77 78 87 90 95 99 106 102 97 90 93 107 111 108 99 55 40
245 247 259 289 231 184 265 259 254 235 237 218 229 237 233 228 195 187 180 179 184 181 185 178 171 164 160 160 119 118 128 82 91 91 85 89 100 103 107 109 105 109 115 103 94 100 113 85 0
228 214 240 231 326 236 304 272 249 251 249 249 247 242 240 225 209 186 184 188 186 191 182 175 173 167 161 126 114 97 94 100 93 85 90 67 89 91 108 111 117 111 107 115 113 106 108 124 30
246 207 203 255 25 256 59 284 237 240 250 236 253 241 241 223 194 189 187 191 193 189 173 171 173 168 149 149 145 159 153 151 142 123 113 98 84 94 99 106 111 111 112 106 103 107 115 123 129
236 146 179 186 199 336 207 273 257 201 248 248 250 252 240 211 197 192 194 195 185 170 174 169 171 161 159 157 161 161 142 114 120 123 121 113 96 103 112 121 116 112 109 102 112 111 99 86 108
139 84 56 52 55 266 200 210 184 190 213 247 254 258 242 216 198 194 184 164 167 164 170 173 167 165 163 160 161 159 146 144 139 144 132 131 120 112 105 108 116 112 108 114 113 100 92 96 90
137 100 319 324 346 247 355 250 257 288 236 221 248 270 249 174 174 171 168 173 165 169 172 169 169 169 163 161 159 157 156 160 160 155 152 149 148 149 152 134 123 118 122 113 108 104 108 107 104
197 160 163 213 217 276 354 246 250 227 263 279 264 287 148 201 198 193 183 178 171 171 171 171 170 167 167 164 161 159 159 166 163 165 152 153 157 153 149 130 128 126 120 120 115 114 109 106 106
198 210 168 79 91 2 224 285 282 261 287 279 265 101 192 232 208 184 174 176 172 174 179 176 170 167 167 165 159 162 165 165 166 160 146 143 136 140 137 140 136 133 133 137 134 126 115 109 110
163 165 99 5 211 257 273 267 238 264 250 258 282 291 238 225 183 171 174 171 176 173 168 165 173 170 166 163 165 165 165 163 151 151 145 148 148 149 147 140 139 137 141 148 136 124 125 121 120
149 181 143 134 156 185 299 262 213 211 225 245 266 299 272 236 187 167 166 174 174 165 155 156 159 160 167 165 164 163 163 155 152 157 155 153 148 154 156 154 150 153 156 156 136 130 138 129 128
293 196 154 158 216 238 155 265 162 184 101 299 290 319 310 200 181 171 165 162 171 181 175 169 165 167 173 168 164 166 159 155 159 159 157 154 158 159 156 155 155 158 162 159 149 147 150 140 145